Weather History for KMWO - May, 2014

Change the Weather History Date:

Sunday, May 4, 2014

  Actual Average (KDAY) Record (KDAY)
Temperature  
Mean Temperature 58 °F 58 °F  
Max Temperature 70 °F 68 °F 88 °F (1902)
Min Temperature 47 °F 48 °F 28 °F (1903)
Degree Days  
Heating Degree Days 6 8  
Month to date heating degree days 33  
Since 1 July heating degree days 5484  
Cooling Degree Days 0 1  
Month to date cooling degree days 4  
Year to date cooling degree days 14  
Growing Degree Days 8 (Base 50)    
Moisture  
Dew Point 35 °F    
Average Humidity 44    
Maximum Humidity 77    
Minimum Humidity 27    
Precipitation  
Precipitation 0.00 in 0.16 in 2.23 in (1990)
Month to date precipitation 0.60  
Year to date precipitation 12.98  
Snow  
Snow 0.00 in 0.00 in 0.00 in ()
Month to date snowfall 0.0  
Since 1 July snowfall 23.3  
Snow Depth -    
Sea Level Pressure  
Sea Level Pressure 29.98 in    
Wind  
Wind Speed 7 mph (WNW)    
Max Wind Speed 20 mph    
Max Gust Speed 23 mph    
Visibility 10 miles    
Events      
T = Trace of Precipitation, MM = Missing Value Source: NWS Daily Summary

Daily Weather History Graph

Daily Weather History Graph

Search for Another Location

Airport or City:

Trip Planner

Search our weather history database for the weather conditions in past years. The results will help you decide how hot, cold, wet, or windy it might be!

Date:

Astronomy

May. 04, 2014 Rise Set
Actual Time 6:34 AM EDT 8:34 PM EDT
Civil Twilight 6:05 AM EDT 9:03 PM EDT
Nautical Twilight 5:29 AM EDT 9:39 PM EDT
Astronomical Twilight 4:51 AM EDT 10:18 PM EDT
Moon 10:58 AM EDT (5/4) 12:38 AM EDT (5/4)
Length of Visible Light 14h 58m
Length of Day
13h 59m
Waxing Crescent, 27% of the Moon is Illuminated
May 4
Waxing Crescent
May 6
First Quarter
May 14
Full
May 21
Last Quarter
May 28
New

Hourly Weather History & Observations

Time (EDT) Temp. Dew Point Humidity Pressure Visibility Wind Dir Wind Speed Gust Speed Precip Events Conditions
12:15 AM 47.7 °F 38.1 °F 70% 29.95 in 10.0 mi WSW 4.6 mph - N/A   Clear
12:35 AM 47.7 °F 37.0 °F 67% 29.95 in 10.0 mi SW 4.6 mph - N/A   Clear
12:55 AM 47.8 °F 36.9 °F 66% 29.95 in 10.0 mi WSW 4.6 mph - N/A   Clear
1:15 AM 52.7 °F 37.4 °F 56% 29.95 in 10.0 mi WSW 4.6 mph - N/A   Clear
1:35 AM 49.3 °F 35.1 °F 58% 29.95 in 10.0 mi WSW 5.8 mph - N/A   Clear
1:55 AM 52.7 °F 36.3 °F 54% 29.93 in 10.0 mi WSW 4.6 mph - N/A   Clear
2:15 AM 52.7 °F 34.0 °F 49% 29.93 in 10.0 mi WSW 4.6 mph - N/A   Clear
2:35 AM 52.7 °F 33.8 °F 49% 29.92 in 10.0 mi SW 4.6 mph - N/A   Clear
2:55 AM 52.7 °F 35.6 °F 52% 29.92 in 10.0 mi WSW 5.8 mph - N/A   Scattered Clouds
3:15 AM 52.7 °F 37.9 °F 57% 29.92 in 10.0 mi SW 5.8 mph - N/A   Scattered Clouds
3:35 AM 52.7 °F 36.7 °F 55% 29.92 in 10.0 mi SW 5.8 mph - N/A   Clear
3:55 AM 51.6 °F 38.5 °F 61% 29.92 in 10.0 mi WSW 4.6 mph - N/A   Clear
4:15 AM 50.2 °F 38.7 °F 65% 29.92 in 10.0 mi WSW 3.5 mph - N/A   Clear
4:35 AM 47.7 °F 38.5 °F 70% 29.93 in 10.0 mi Calm Calm - N/A   Clear
4:55 AM 47.7 °F 39.4 °F 73% 29.93 in 10.0 mi Calm Calm - N/A   Clear
5:15 AM 47.7 °F 40.5 °F 76% 29.93 in 10.0 mi SW 5.8 mph - N/A   Mostly Cloudy
5:35 AM 47.7 °F 40.1 °F 75% 29.93 in 10.0 mi SSW 4.6 mph - N/A   Overcast
5:55 AM 49.1 °F 39.7 °F 70% 29.93 in 10.0 mi Calm Calm - N/A   Overcast
6:15 AM 47.8 °F 41.0 °F 77% 29.94 in 10.0 mi WSW 3.5 mph - N/A   Overcast
6:35 AM 52.7 °F 41.4 °F 65% 29.94 in 10.0 mi West 4.6 mph - N/A   Overcast
6:55 AM 52.7 °F 40.5 °F 63% 29.95 in 10.0 mi West 5.8 mph - N/A   Overcast
7:15 AM 54.1 °F 41.4 °F 62% 29.95 in 10.0 mi SW 5.8 mph - N/A   Overcast
7:35 AM 53.8 °F 41.7 °F 64% 29.96 in 10.0 mi SW 6.9 mph - N/A   Overcast
7:55 AM 55.0 °F 43.7 °F 66% 29.96 in 10.0 mi SW 5.8 mph - N/A   Overcast
8:15 AM 55.4 °F 42.8 °F 63% 29.97 in 10.0 mi SW 4.6 mph - N/A   Overcast
8:35 AM 57.7 °F 42.4 °F 57% 29.98 in 10.0 mi West 5.8 mph - N/A   Overcast
8:55 AM 57.7 °F 41.4 °F 54% 29.98 in 10.0 mi WSW 6.9 mph - N/A   Mostly Cloudy
9:15 AM 59.0 °F 40.5 °F 50% 29.99 in 10.0 mi WNW 6.9 mph - N/A   Scattered Clouds
9:35 AM 60.6 °F 37.4 °F 42% 29.98 in 10.0 mi WNW 6.9 mph - N/A   Scattered Clouds
9:55 AM 62.6 °F 36.0 °F 37% 29.98 in 10.0 mi NW 11.5 mph - N/A   Scattered Clouds
10:15 AM 64.0 °F 33.8 °F 32% 29.97 in 10.0 mi WNW 8.1 mph - N/A   Clear
10:35 AM 67.1 °F 37.9 °F 34% 29.98 in 10.0 mi NW 9.2 mph 16.1 mph N/A   Clear
10:55 AM 67.6 °F 36.5 °F 32% 29.98 in 10.0 mi NNW 13.8 mph 19.6 mph N/A   Clear
11:15 AM 67.6 °F 36.1 °F 31% 29.99 in 10.0 mi NNW 9.2 mph 16.1 mph N/A   Clear
11:35 AM 67.6 °F 36.3 °F 32% 29.99 in 10.0 mi NNW 11.5 mph 17.3 mph N/A   Clear
11:55 AM 67.6 °F 34.3 °F 29% 29.99 in 10.0 mi Calm Calm - N/A   Clear
12:15 PM 67.6 °F 34.0 °F 29% 29.99 in 10.0 mi NW 8.1 mph 17.3 mph N/A   Clear
12:35 PM 67.6 °F 35.6 °F 31% 29.99 in 10.0 mi WNW 9.2 mph 17.3 mph N/A   Clear
12:55 PM 67.6 °F 36.1 °F 31% 29.99 in 10.0 mi NW 19.6 mph 23.0 mph N/A   Clear
1:15 PM 67.6 °F 36.1 °F 31% 29.99 in 10.0 mi West 15.0 mph 19.6 mph N/A   Clear
1:35 PM 67.6 °F 36.1 °F 31% 29.99 in 10.0 mi WNW 15.0 mph 21.9 mph N/A   Clear
1:55 PM 68.0 °F 35.4 °F 30% 29.99 in 10.0 mi West 10.4 mph 19.6 mph N/A   Clear
2:15 PM 68.9 °F 36.3 °F 30% 29.99 in 10.0 mi WNW 6.9 mph 23.0 mph N/A   Clear
2:35 PM 67.6 °F 35.6 °F 31% 29.98 in 10.0 mi NNW 11.5 mph 20.7 mph N/A   Clear
2:55 PM 70.2 °F 37.0 °F 30% 29.98 in 10.0 mi NW 17.3 mph - N/A   Scattered Clouds
3:15 PM 67.6 °F 35.6 °F 31% 29.99 in 10.0 mi West 6.9 mph - N/A   Clear
3:35 PM 68.9 °F 36.3 °F 30% 29.98 in 10.0 mi WNW 13.8 mph 17.3 mph N/A   Clear
3:55 PM 67.6 °F 34.9 °F 30% 29.99 in 10.0 mi WNW 11.5 mph 20.7 mph N/A   Clear
4:15 PM 67.8 °F 36.0 °F 31% 29.99 in 10.0 mi NW 11.5 mph 18.4 mph N/A   Scattered Clouds
4:35 PM 67.6 °F 35.1 °F 30% 29.98 in 10.0 mi WNW 11.5 mph 16.1 mph N/A   Clear
4:55 PM 67.6 °F 34.2 °F 29% 29.99 in 10.0 mi NW 10.4 mph - N/A   Clear
5:15 PM 67.6 °F 32.5 °F 27% 29.99 in 10.0 mi West 10.4 mph 19.6 mph N/A   Scattered Clouds
5:35 PM 67.6 °F 32.5 °F 27% 29.99 in 10.0 mi WNW 11.5 mph 17.3 mph N/A   Scattered Clouds
5:55 PM 67.6 °F 35.4 °F 30% 29.99 in 10.0 mi NW 9.2 mph - N/A   Scattered Clouds
6:15 PM 67.1 °F 34.3 °F 30% 29.98 in 10.0 mi NNE 10.4 mph 16.1 mph N/A   Scattered Clouds
6:35 PM 65.3 °F 31.5 °F 28% 29.99 in 10.0 mi North 9.2 mph 18.4 mph N/A   Scattered Clouds
6:55 PM 62.4 °F 29.7 °F 29% 30.00 in 10.0 mi NNE 13.8 mph - N/A   Clear
7:15 PM 60.1 °F 28.8 °F 30% 30.00 in 10.0 mi North 9.2 mph - N/A   Clear
7:35 PM 59.0 °F 27.5 °F 30% 30.00 in 10.0 mi NNE 10.4 mph 17.3 mph N/A   Clear
7:55 PM 57.7 °F 27.3 °F 31% 30.03 in 10.0 mi North 10.4 mph - N/A   Clear
8:15 PM 57.7 °F 29.3 °F 34% 30.03 in 10.0 mi NNE 11.5 mph 17.3 mph N/A   Clear
8:35 PM 55.4 °F 28.6 °F 36% 30.03 in 10.0 mi NNE 8.1 mph - N/A   Clear
8:55 PM 55.4 °F 29.5 °F 37% 30.05 in 10.0 mi NNE 5.8 mph - N/A   Clear
9:15 PM 55.4 °F 29.1 °F 37% 30.05 in 10.0 mi NNE 5.8 mph - N/A   Clear
9:35 PM 54.5 °F 29.5 °F 38% 30.05 in 10.0 mi NNE 11.5 mph - N/A   Clear
9:55 PM 52.7 °F 25.0 °F 34% 30.05 in 10.0 mi NNE 9.2 mph - N/A   Clear
10:15 PM 52.7 °F 25.0 °F 34% 30.06 in 10.0 mi NNE 10.4 mph - N/A   Clear
10:35 PM 52.7 °F 27.3 °F 38% 30.06 in 10.0 mi NNE 8.1 mph - N/A   Clear
10:55 PM 52.7 °F 27.0 °F 37% 30.07 in 10.0 mi NNE 9.2 mph - N/A   Clear
11:15 PM 52.7 °F 26.8 °F 37% 30.06 in 10.0 mi NNE 10.4 mph - N/A   Clear
11:35 PM 52.7 °F 27.9 °F 38% 30.06 in 10.0 mi NNE 9.2 mph - N/A   Clear
11:55 PM 52.7 °F 28.6 °F 40% 30.05 in 10.0 mi NE 6.9 mph - N/A   Clear